Location: C.E.K. Mees Observatory
(42.7003°N, 77.4088°W)
Time: 19:20:00
(UTC-05:00)

Envisat - Pass Details

Date: 24 November 2019
Orbit: 764 x 766 km, 98.1° (Epoch: 05 December)

Event Time Altitude Azimuth Distance (km) Brightness Sun altitude
Rises 06:14:49 0° 23° (NNE) 3,238 6.3 -10.5°
Reaches altitude 10° 06:17:24 10° 34° (NE) 2,307 5.7 -10.0°
Maximum altitude 06:21:52 30° 95° (E) 1,335 5.2 -9.3°
Drops below altitude 10° 06:26:18 10° 157° (SSE) 2,292 6.1 -8.5°
Sets 06:28:50 0° 168° (SSE) 3,214 6.7 -8.1°
